Temp
83 93 94 95 80 63 62 60 90 89 89 98 98 94 87 87 83 66 93 95 92 87 83 83 80 80 80 80 80 80 79 79 79 79 79 79 79 80 80 80 80 81 81 80 80 80 80 80 80
94 99 100 93 70 52 63 74 74 87 94 98 97 97 90 82 92 90 95 96 93 87 86 82 80 80 80 79 79 79 79 79 79 79 79 79 79 79 80 80 80 81 81 81 81 81 80 80 80
91 98 91 86 66 57 65 74 65 76 96 94 91 96 91 85 93 95 100 96 93 90 88 80 79 80 80 79 79 79 79 79 79 79 79 79 79 79 80 80 80 81 81 81 81 80 80 80 80
101 101 97 82 76 74 73 69 72 74 96 98 94 83 90 98 96 99 101 98 94 93 87 80 79 79 79 79 79 79 79 79 79 79 79 79 79 79 79 80 80 80 81 81 80 80 80 80 80
105 97 84 83 85 83 80 78 75 75 83 95 94 84 84 95 99 100 99 98 96 92 86 82 79 79 79 79 79 79 79 79 79 79 79 79 79 79 79 80 80 80 80 80 80 80 80 80 80
92 96 80 79 87 87 80 82 76 71 80 95 93 87 86 96 96 99 100 99 98 90 87 81 79 79 79 79 79 79 79 79 79 79 79 79 79 79 79 80 80 80 80 80 80 80 80 79 79
89 87 82 85 86 89 93 94 84 81 79 94 98 84 89 93 98 100 100 102 97 93 88 84 82 80 79 79 78 78 78 79 79 79 79 79 79 79 79 80 80 80 80 80 80 80 79 79 79
95 90 83 86 85 84 96 98 100 87 76 90 103 85 84 93 99 100 102 101 98 95 90 87 84 83 81 80 78 78 78 78 78 78 78 78 79 79 79 78 79 79 80 80 79 79 79 78 78
100 83 79 84 88 90 99 94 102 93 80 87 100 97 97 98 100 99 99 100 98 96 93 92 89 87 87 85 81 78 79 79 78 78 78 78 80 80 82 81 81 79 79 79 79 79 78 78 78
90 82 83 93 94 94 97 96 97 91 93 95 95 98 98 98 97 97 96 96 97 95 95 95 93 90 91 90 81 81 81 80 80 81 79 80 82 83 88 85 79 80 79 79 79 79 78 79 80
90 83 91 94 97 98 95 95 88 75 80 94 91 93 95 96 96 97 98 98 98 99 98 98 92 88 93 91 82 85 85 84 82 83 81 81 87 86 87 83 83 80 79 81 81 80 80 83 86
85 92 93 95 98 95 93 98 74 77 83 88 88 92 95 94 96 98 98 99 99 99 98 98 95 89 91 91 86 88 88 87 86 86 84 82 83 85 85 87 86 82 85 81 84 86 85 83 89
88 91 95 97 97 95 97 94 94 86 90 89 79 78 95 95 96 99 100 100 98 98 98 99 94 89 89 87 89 90 89 89 89 87 86 86 84 83 85 85 86 85 86 86 87 87 87 87 86
93 93 93 95 95 96 92 93 95 98 98 91 90 90 96 96 97 98 98 97 95 96 96 99 94 87 92 88 87 88 87 88 89 87 86 85 85 84 84 84 84 84 85 86 87 85 84 84 84
93 87 91 92 93 92 95 88 89 99 101 99 99 99 98 98 99 98 98 94 95 95 94 92 91 89 86 87 88 87 87 91 86 87 87 85 84 84 85 84 84 85 85 88 86 85 82 81 83
85 86 77 89 91 93 92 79 92 99 98 97 99 99 99 98 99 100 100 96 94 94 89 91 98 90 86 85 86 88 88 87 87 87 86 87 86 84 82 82 83 85 83 84 83 81 80 80 79
82 74 78 82 93 91 88 81 92 99 97 96 97 98 99 98 98 98 100 98 93 92 90 89 90 90 86 85 86 86 86 87 86 87 87 84 85 86 82 83 83 82 82 82 80 79 77 78 76
75 77 81 80 89 90 86 85 92 96 96 95 97 98 99 99 97 98 98 98 93 92 90 88 89 87 85 86 85 86 87 86 87 87 87 84 85 86 83 83 82 83 80 78 79 78 79 78 77
83 79 78 84 90 87 85 85 89 94 94 94 96 96 96 98 103 99 98 97 93 89 87 86 86 85 84 85 83 84 84 86 86 87 87 85 85 85 82 83 83 82 80 80 79 78 77 76 75
80 77 77 83 88 85 83 82 87 90 91 94 96 96 96 98 100 100 96 94 90 87 86 85 85 84 85 85 83 86 85 87 87 87 85 87 86 85 84 82 81 80 79 78 77 76 73 75 75
78 76 76 77 84 86 81 77 81 89 92 94 96 97 98 98 98 97 96 93 91 87 85 85 84 84 85 84 85 84 85 84 85 85 84 84 85 84 83 82 81 79 79 76 76 74 74 69 72
73 84 82 80 76 69 82 65 78 85 86 90 92 95 97 98 99 99 97 93 92 90 89 87 84 84 84 84 84 81 83 82 85 85 84 82 83 82 82 81 79 78 77 73 72 73 71 70 68
77 84 80 79 74 73 74 70 76 85 83 87 84 82 84 87 86 87 88 90 97 95 90 88 85 83 84 83 83 83 81 84 85 84 80 78 78 80 81 79 77 75 74 72 71 71 70 71 68
84 79 78 77 74 63 71 71 72 78 78 75 77 79 80 83 84 85 87 86 86 89 94 89 84 83 84 83 82 81 80 81 82 81 78 77 77 77 78 78 75 74 71 71 70 70 69 68 67
80 72 62 60 62 61 76 71 62 69 73 73 72 75 78 81 82 82 83 84 83 83 78 76 83 80 84 84 83 81 82 80 80 80 78 76 75 75 74 72 71 71 70 70 69 69 68 67 66
73 71 61 50 54 62 72 65 60 73 75 75 75 75 75 75 78 78 80 80 79 79 75 71 68 72 80 83 83 81 82 83 81 80 79 77 76 72 72 70 71 69 69 69 68 68 68 67 66
70 66 72 61 65 60 66 72 69 72 71 72 72 72 72 73 74 75 77 76 77 75 70 70 66 66 73 80 79 78 80 81 82 79 78 77 73 70 69 69 68 68 68 68 67 67 66 66 66
71 74 61 65 50 49 60 64 55 63 65 68 69 69 70 73 74 74 75 74 76 76 73 68 69 70 73 77 78 78 78 79 80 75 75 71 70 70 68 69 68 68 68 68 68 67 67 66 65
66 61 62 61 59 51 50 59 69 66 66 64 66 68 69 71 73 74 74 75 76 77 75 72 70 68 72 75 76 78 77 73 72 70 71 69 70 68 69 67 68 67 67 68 67 66 67 65 64
65 60 58 49 49 53 51 53 75 67 63 62 62 63 66 68 70 74 73 73 72 73 75 73 69 67 69 72 71 73 70 70 69 68 68 68 67 67 68 68 68 68 68 67 66 66 67 66 65
MSLP
1007.14 1006.76 1006.58 1005.29 1005.41 1007.48 1007.32 1006.68 1001.97 999.69 998.78 998.66 999.24 999.72 1001.40 1002.91 1003.07 1005.77 1005.78 1006.90 1008.40 1010.06 1011.20 1011.65 1012.10 1012.48 1012.82 1013.18 1013.51 1013.87 1014.20 1014.45 1014.68 1014.90 1015.08 1015.20 1015.30 1015.43 1015.53 1015.62 1015.75 1015.78 1015.84 1015.95 1016.03 1016.04 1016.10 1016.13 1016.09
1006.29 1005.50 1004.79 1004.12 1005.12 1008.04 1007.37 1006.79 1003.90 1000.94 1000.04 999.66 999.96 1000.07 1001.14 1003.10 1003.62 1005.04 1005.59 1007.09 1008.55 1010.20 1010.97 1011.72 1012.25 1012.61 1012.91 1013.33 1013.72 1014.06 1014.35 1014.62 1014.88 1015.07 1015.23 1015.34 1015.49 1015.58 1015.73 1015.81 1015.91 1015.95 1016.00 1016.08 1016.15 1016.20 1016.24 1016.22 1016.18
1005.76 1004.90 1003.95 1002.68 1004.60 1006.28 1006.58 1006.69 1004.82 1004.09 1000.90 1000.52 1000.56 1000.84 1002.02 1003.69 1004.37 1004.83 1005.56 1007.26 1008.68 1009.90 1010.78 1011.86 1012.38 1012.76 1013.07 1013.42 1013.81 1014.20 1014.41 1014.67 1014.93 1015.18 1015.34 1015.52 1015.71 1015.79 1015.87 1015.96 1016.04 1016.12 1016.14 1016.20 1016.21 1016.29 1016.34 1016.31 1016.26
1003.72 1002.46 1002.21 1001.62 1001.60 1002.95 1005.29 1005.57 1006.51 1004.64 1001.16 1000.42 1000.63 1002.22 1003.49 1003.65 1004.26 1005.08 1005.80 1007.36 1008.63 1009.51 1010.88 1012.10 1012.50 1012.87 1013.22 1013.58 1013.91 1014.34 1014.58 1014.79 1015.06 1015.33 1015.50 1015.66 1015.85 1015.97 1016.02 1016.06 1016.12 1016.14 1016.20 1016.27 1016.34 1016.34 1016.44 1016.38 1016.32
1002.77 1001.96 1001.02 999.82 999.34 1001.11 1003.58 1002.75 1006.30 1005.12 1002.49 1000.58 1000.81 1002.44 1003.64 1004.16 1004.75 1005.52 1006.12 1007.35 1007.99 1009.52 1011.08 1012.06 1012.60 1013.04 1013.38 1013.71 1014.02 1014.40 1014.62 1014.83 1015.14 1015.42 1015.55 1015.75 1015.93 1016.04 1016.12 1016.19 1016.26 1016.25 1016.26 1016.39 1016.38 1016.42 1016.44 1016.36 1016.26
1002.41 1001.28 1000.36 998.91 998.05 999.29 1001.27 1002.67 1003.55 1004.54 1002.04 1000.51 1000.79 1002.09 1003.75 1004.59 1005.14 1005.57 1006.24 1006.83 1007.83 1009.67 1010.96 1012.12 1012.72 1013.11 1013.52 1013.88 1014.19 1014.56 1014.72 1014.95 1015.19 1015.46 1015.69 1015.78 1016.01 1016.08 1016.21 1016.20 1016.29 1016.36 1016.32 1016.44 1016.46 1016.40 1016.37 1016.28 1016.17
1002.24 1001.12 999.78 998.55 998.04 998.24 998.54 1000.15 1001.04 1002.25 1002.52 1000.76 1000.55 1002.22 1003.88 1004.60 1005.15 1005.53 1006.05 1006.46 1007.89 1009.45 1010.74 1011.86 1012.53 1013.09 1013.57 1013.99 1014.31 1014.65 1014.83 1015.08 1015.26 1015.42 1015.68 1015.91 1015.94 1016.08 1016.12 1016.25 1016.30 1016.33 1016.38 1016.46 1016.49 1016.36 1016.25 1016.11 1015.86
1002.04 1001.14 999.90 998.58 997.54 997.76 998.21 998.87 998.91 1000.52 1002.66 1001.64 1000.38 1001.97 1003.40 1004.23 1004.96 1005.41 1005.68 1006.21 1007.52 1009.14 1010.61 1011.44 1012.26 1012.77 1013.35 1013.89 1014.31 1014.64 1014.94 1015.15 1015.26 1015.49 1015.62 1015.88 1015.92 1016.04 1016.02 1016.11 1016.19 1016.24 1016.29 1016.35 1016.36 1016.22 1016.03 1015.66 1015.48
1002.08 1001.30 999.83 998.34 997.42 997.19 997.72 998.47 998.47 999.94 1003.28 1002.40 1000.95 1001.46 1002.80 1004.08 1004.64 1004.99 1005.35 1005.96 1006.94 1008.36 1009.85 1010.67 1011.56 1012.23 1012.65 1013.32 1014.14 1014.56 1014.87 1015.15 1015.29 1015.41 1015.56 1015.78 1015.64 1015.66 1015.54 1015.68 1015.68 1015.99 1015.97 1016.08 1016.04 1015.80 1015.41 1015.12 1015.35
1002.06 1001.21 999.79 998.37 997.98 997.10 997.64 998.55 998.85 1000.60 1001.14 1000.82 1001.66 1002.44 1003.44 1003.93 1004.24 1004.40 1004.90 1005.49 1006.36 1007.46 1008.74 1009.78 1010.68 1011.38 1011.72 1012.52 1013.76 1014.22 1014.57 1014.83 1015.02 1014.95 1015.18 1015.36 1014.89 1014.78 1014.63 1014.98 1015.42 1015.48 1015.51 1015.52 1015.55 1015.32 1015.03 1015.24 1015.04
1001.80 1000.80 999.75 998.56 998.25 998.02 998.28 998.73 1000.44 1002.31 1002.59 1001.20 1001.56 1002.28 1003.26 1003.69 1003.90 1004.02 1004.48 1005.07 1005.82 1006.70 1007.59 1008.67 1009.78 1010.52 1010.86 1011.64 1013.33 1013.45 1013.72 1013.98 1014.29 1014.24 1014.51 1014.63 1014.09 1014.03 1014.08 1014.58 1014.84 1015.02 1015.21 1014.95 1014.83 1014.66 1014.69 1014.52 1013.98
1001.24 1000.47 999.80 998.88 998.52 998.65 998.91 998.90 1001.71 1002.19 1002.85 1001.24 1003.58 1003.71 1002.76 1003.31 1003.59 1003.72 1004.15 1004.66 1005.26 1006.16 1006.92 1007.87 1009.02 1009.89 1010.19 1010.93 1012.19 1012.29 1012.48 1012.89 1013.24 1013.44 1013.78 1013.88 1013.89 1013.60 1013.73 1013.73 1013.90 1014.23 1013.88 1013.98 1013.85 1013.68 1013.73 1013.75 1013.17
1000.56 1000.07 999.59 999.13 998.58 998.84 999.13 999.17 999.46 1000.86 1002.35 1001.22 1003.39 1003.74 1002.74 1002.87 1003.22 1003.32 1003.78 1004.28 1004.89 1005.72 1006.56 1007.39 1008.57 1009.53 1009.98 1010.72 1010.99 1011.30 1011.59 1011.90 1012.20 1012.66 1013.18 1013.49 1013.56 1013.68 1013.50 1013.64 1013.47 1013.42 1013.32 1013.25 1013.08 1013.02 1012.97 1013.15 1013.20
1000.09 999.80 999.58 999.09 998.84 998.71 999.17 999.24 999.35 999.06 999.74 1000.23 1001.38 1002.72 1002.02 1002.44 1002.63 1002.92 1003.47 1004.10 1004.80 1005.47 1006.32 1007.10 1008.14 1009.27 1009.87 1010.15 1010.62 1010.86 1011.04 1011.30 1011.55 1012.04 1012.57 1013.13 1013.24 1013.29 1013.41 1013.63 1013.66 1013.54 1013.37 1013.18 1013.08 1013.09 1013.26 1013.30 1013.25
1000.08 999.66 999.16 999.16 999.16 998.59 999.00 998.79 998.63 998.44 998.66 998.83 999.52 1000.08 1000.78 1001.81 1002.13 1002.61 1003.19 1003.92 1004.70 1005.39 1006.11 1007.04 1007.90 1008.99 1009.76 1010.15 1010.56 1010.67 1010.81 1011.03 1011.46 1011.70 1012.12 1012.67 1013.07 1013.26 1013.26 1013.57 1013.45 1013.21 1013.04 1012.86 1012.94 1013.04 1013.23 1013.42 1013.51
1000.38 999.95 999.59 999.05 999.01 998.65 999.00 998.38 998.21 998.12 998.25 998.24 998.82 999.34 999.77 1000.52 1001.29 1002.15 1002.97 1003.72 1004.49 1005.26 1005.98 1006.70 1007.42 1008.62 1009.52 1009.95 1010.34 1010.52 1010.50 1010.86 1011.14 1011.52 1011.84 1012.30 1012.78 1013.18 1013.41 1013.60 1013.41 1013.03 1013.03 1012.96 1013.29 1013.35 1013.42 1013.54 1013.58
1000.21 999.68 999.08 998.63 997.98 998.28 998.78 998.54 998.03 997.77 997.66 997.72 998.11 998.55 998.94 999.62 1000.51 1001.24 1002.11 1003.34 1004.39 1005.10 1005.82 1006.46 1007.05 1007.92 1008.99 1009.56 1010.05 1010.37 1010.44 1010.62 1010.72 1010.92 1011.28 1011.88 1012.40 1012.71 1013.12 1013.26 1013.08 1013.02 1013.04 1013.36 1013.60 1013.53 1013.63 1013.72 1013.84
999.12 998.83 998.14 997.66 997.06 997.20 997.77 997.81 997.70 997.69 997.32 997.21 997.50 998.07 998.36 998.70 999.49 1000.26 1001.14 1002.16 1003.65 1004.94 1005.73 1006.28 1006.74 1007.34 1008.33 1009.27 1009.69 1010.09 1010.10 1010.27 1010.30 1010.50 1010.78 1011.46 1011.92 1012.33 1012.68 1012.94 1012.89 1013.00 1013.28 1013.52 1013.71 1013.75 1013.82 1013.92 1013.77
999.12 999.12 998.50 997.74 997.51 997.45 997.39 997.36 997.43 997.63 997.58 997.24 997.26 997.59 998.21 998.53 998.61 999.29 1000.17 1001.00 1002.30 1003.70 1005.09 1006.18 1006.64 1007.05 1007.75 1008.48 1009.02 1009.17 1009.32 1009.58 1010.04 1010.10 1010.27 1010.93 1011.38 1011.79 1012.08 1012.52 1012.74 1013.02 1013.38 1013.62 1013.95 1014.09 1014.02 1013.92 1014.06
1000.06 999.82 999.27 998.86 998.55 998.51 998.28 998.23 998.48 998.38 997.90 997.45 997.23 997.24 997.68 998.30 998.60 998.90 999.82 1000.61 1001.54 1002.46 1003.35 1004.70 1006.08 1006.78 1006.97 1007.37 1008.00 1008.33 1008.63 1008.86 1009.33 1009.64 1009.85 1010.14 1010.68 1011.16 1011.46 1012.03 1012.40 1012.81 1013.15 1013.68 1014.04 1014.21 1014.36 1014.02 1014.00
1000.38 1000.05 999.66 999.31 998.89 998.71 999.06 999.07 998.79 998.35 998.06 997.85 997.64 997.58 997.72 998.06 998.45 998.70 999.02 999.71 1000.52 1001.68 1002.59 1003.23 1004.00 1005.17 1006.05 1006.64 1007.31 1007.77 1008.05 1008.37 1008.76 1008.96 1009.40 1009.80 1010.22 1010.59 1011.07 1011.62 1012.20 1012.60 1013.06 1013.68 1014.02 1014.34 1014.42 1014.51 1014.23
1000.02 999.73 999.55 999.52 999.59 999.34 999.19 998.59 998.10 997.68 997.76 997.75 997.93 998.17 998.49 998.64 998.86 998.90 998.73 999.19 999.76 1000.47 1001.09 1001.70 1002.16 1002.90 1004.11 1005.19 1005.78 1006.35 1006.60 1007.07 1007.42 1007.92 1008.68 1009.46 1009.94 1010.57 1011.02 1011.50 1012.03 1012.49 1012.87 1013.52 1014.08 1014.48 1014.78 1014.70 1014.66
1000.14 1000.25 1000.36 1000.52 1000.44 1000.17 999.81 999.34 998.62 998.31 998.28 998.36 999.96 1000.74 1001.32 1000.88 1001.28 1001.08 1000.90 1000.34 999.37 999.24 1000.06 1000.47 1001.51 1002.47 1003.15 1004.18 1004.69 1005.10 1005.75 1006.14 1006.72 1007.46 1008.30 1009.18 1010.02 1010.61 1010.98 1011.41 1012.22 1012.72 1012.96 1013.48 1013.82 1014.55 1014.80 1014.88 1014.98
1001.56 1001.44 1001.28 1001.20 1000.99 1000.45 1000.05 999.88 999.42 999.56 1000.48 1001.78 1002.80 1003.47 1003.52 1003.04 1003.00 1002.54 1002.45 1002.09 1001.57 1001.78 1000.78 999.30 1000.10 1000.65 1002.43 1003.58 1004.75 1004.91 1004.91 1005.48 1006.16 1006.97 1008.02 1008.94 1009.80 1010.61 1011.10 1011.51 1012.16 1012.74 1013.18 1013.74 1013.96 1014.47 1014.90 1015.08 1015.43
1001.91 1001.81 1001.46 1001.12 1000.58 999.98 999.71 1000.14 1003.52 1003.18 1004.24 1005.17 1005.44 1005.58 1005.51 1005.28 1004.91 1004.34 1004.03 1003.46 1002.94 1002.82 1004.37 1003.05 997.68 1002.41 1001.11 1003.54 1003.49 1004.21 1004.95 1005.38 1005.75 1006.64 1007.63 1008.47 1009.43 1010.32 1010.98 1011.53 1012.15 1012.78 1013.07 1013.84 1014.05 1014.36 1014.87 1015.49 1015.78
1003.24 1003.10 1003.16 1002.90 1002.18 1000.97 1001.04 1001.34 1004.65 1005.01 1005.84 1006.81 1007.43 1007.60 1007.78 1007.54 1007.21 1006.67 1006.12 1005.51 1005.32 1004.40 1003.22 1006.60 1005.34 1002.94 1001.06 1002.52 1002.34 1002.36 1004.27 1004.85 1005.40 1005.82 1006.93 1007.92 1008.78 1009.87 1010.68 1011.26 1012.22 1012.64 1013.06 1013.74 1014.13 1014.53 1014.84 1015.38 1015.86
1004.58 1004.59 1005.44 1005.08 1004.56 1003.82 1003.20 1002.76 1004.98 1006.52 1007.21 1008.08 1008.58 1008.88 1009.04 1008.98 1008.86 1008.29 1007.90 1007.22 1006.94 1006.36 1004.10 1005.44 1004.57 1005.12 1005.06 1002.12 1002.74 1002.11 1003.26 1004.52 1004.89 1005.45 1006.60 1007.36 1008.86 1009.82 1011.00 1011.65 1012.19 1012.71 1013.18 1013.68 1014.00 1014.44 1014.97 1015.34 1015.71
1006.34 1006.89 1006.38 1005.96 1005.86 1005.18 1004.45 1004.29 1006.51 1007.83 1008.87 1009.62 1009.68 1009.92 1010.02 1009.57 1009.32 1009.16 1008.89 1008.34 1007.53 1007.96 1006.64 1005.74 1006.55 1005.31 1006.00 1002.48 1003.63 1003.15 1003.53 1004.13 1004.74 1006.00 1006.46 1007.26 1008.68 1009.82 1010.75 1011.39 1011.96 1012.68 1013.28 1013.67 1014.08 1014.45 1014.88 1015.37 1015.71
1007.86 1008.48 1009.10 1009.22 1008.74 1007.75 1007.16 1006.74 1007.88 1009.44 1010.79 1011.58 1011.86 1011.81 1011.21 1010.68 1010.10 1009.94 1009.64 1009.32 1008.41 1008.20 1008.77 1007.80 1006.22 1005.10 1003.76 1004.48 1004.36 1003.91 1004.14 1004.54 1004.89 1006.32 1006.63 1007.97 1008.69 1009.45 1010.53 1011.24 1011.72 1012.31 1013.18 1013.65 1013.94 1014.43 1014.94 1015.44 1015.90
1010.48 1011.24 1011.88 1011.86 1011.30 1011.29 1010.98 1008.92 1007.43 1011.26 1013.45 1014.24 1014.67 1014.57 1013.72 1013.06 1012.61 1011.22 1010.95 1010.57 1010.11 1008.97 1008.42 1008.82 1009.02 1008.66 1007.98 1007.10 1006.24 1005.68 1005.06 1005.11 1005.60 1006.51 1007.02 1007.89 1008.85 1009.67 1010.52 1011.13 1011.80 1012.29 1012.97 1013.59 1013.99 1014.39 1014.84 1015.31 1015.87
Wind_Speed
9 12 9 11 1 6 8 16 18 14 16 17 12 14 21 16 5 9 6 23 24 19 16 15 15 15 14 13 13 12 12 11 11 11 11 11 11 11 11 11 10 11 10 10 10 10 9 9 8
9 14 11 7 6 5 5 10 19 14 12 16 8 10 19 18 13 12 13 24 23 18 14 15 15 15 15 14 13 12 12 12 11 11 11 11 11 11 10 10 9 9 9 8 8 8 7 7 6
13 14 9 8 7 8 10 12 21 25 10 8 6 16 10 11 17 15 21 25 21 17 16 14 15 14 14 15 14 13 12 12 11 12 11 11 10 10 9 9 9 8 7 6 6 5 5 5 5
10 8 9 12 16 24 10 16 15 21 10 7 15 15 10 14 16 17 23 23 20 19 17 15 15 14 14 15 14 12 13 12 11 11 11 10 10 9 8 7 6 6 6 5 4 3 3 3 5
10 10 14 17 19 13 18 32 21 13 14 12 21 13 10 9 18 18 21 18 19 19 16 15 15 14 14 15 14 13 13 12 12 11 11 10 9 8 7 6 5 5 4 3 2 0 3 4 6
11 12 15 16 14 16 19 25 28 18 31 5 21 18 12 16 18 18 19 17 22 19 16 15 15 14 13 13 13 12 12 12 11 11 10 10 9 8 6 6 5 4 3 2 2 3 5 6 7
15 14 18 22 11 5 7 22 24 20 15 11 23 18 14 16 17 17 16 17 22 19 17 14 13 13 14 13 12 12 12 11 11 10 9 9 9 8 7 6 6 6 5 4 5 6 7 9 11
13 13 22 20 16 3 4 1 5 13 6 22 5 10 17 19 18 16 17 18 21 18 16 15 13 14 12 12 14 13 12 11 10 10 10 9 9 9 9 8 9 8 7 7 8 9 10 14 14
20 12 15 22 16 3 3 5 4 23 20 28 8 17 21 21 20 17 16 17 17 18 17 16 15 14 13 13 12 12 13 12 11 10 10 8 7 10 11 11 11 11 9 9 11 13 16 17 13
17 12 21 22 11 12 7 6 4 4 11 18 14 22 21 21 18 18 17 15 17 20 19 16 16 15 14 12 12 10 10 8 8 9 9 8 10 9 10 11 14 14 13 14 14 16 17 13 8
19 17 21 24 12 7 9 10 14 19 26 6 19 21 20 19 16 17 17 17 16 16 14 18 15 14 16 13 9 6 7 7 8 11 9 9 7 6 4 5 7 6 12 7 11 10 8 9 8
22 21 20 23 1 8 10 15 14 11 9 17 19 9 20 19 16 16 16 16 17 16 15 16 17 11 10 12 10 10 9 8 7 8 9 5 3 2 3 3 7 8 6 10 8 7 9 11 5
21 20 20 20 20 2 12 13 16 24 17 30 18 29 18 16 16 14 13 13 13 15 14 15 16 9 5 13 9 8 8 8 9 8 8 5 4 4 3 3 3 3 2 3 3 4 3 4 6
17 19 20 16 20 17 12 14 16 12 12 20 32 32 18 17 17 13 13 12 9 12 14 13 16 11 9 5 6 4 4 6 4 6 8 8 3 3 2 2 3 4 4 4 4 3 3 3 3
18 16 14 14 21 18 16 18 15 10 14 19 8 11 19 15 16 13 13 11 9 8 13 10 14 14 9 7 4 4 5 5 4 3 6 7 5 3 0 3 3 3 4 4 2 4 3 4 4
12 13 14 16 18 21 14 17 18 16 14 8 9 11 16 18 17 15 14 12 11 10 12 12 13 16 12 10 7 5 4 5 6 5 6 7 6 5 5 4 4 4 2 3 3 3 3 3 3
13 12 17 18 20 20 20 22 20 16 16 14 10 12 15 17 16 16 16 15 13 10 11 12 12 18 16 10 8 7 7 5 5 5 6 9 7 7 5 4 4 1 2 3 3 2 2 3 3
16 17 15 12 14 16 22 21 20 16 19 14 13 11 10 13 21 17 18 18 17 13 10 12 10 10 16 9 7 8 6 6 4 5 5 12 8 8 7 5 4 2 2 2 3 3 3 4 4
19 11 14 13 10 7 9 8 11 12 18 19 12 14 12 13 11 20 19 19 20 19 15 13 12 10 13 11 11 10 10 8 8 5 7 11 9 9 7 5 4 3 3 1 3 3 4 4 2
11 12 14 14 13 11 11 10 12 16 19 18 18 13 13 13 15 10 18 16 21 22 21 18 14 11 12 11 11 9 9 9 8 7 8 8 9 8 9 5 5 5 4 3 3 2 3 3 3
12 13 13 14 14 8 6 14 17 19 18 18 18 17 16 11 12 11 9 21 20 21 21 21 21 18 13 13 9 7 6 5 9 8 7 7 8 7 6 5 5 5 4 4 3 2 1 3 2
13 12 10 9 9 9 13 13 16 10 19 19 17 16 16 15 13 14 10 9 20 22 23 24 24 23 19 15 14 14 12 11 9 8 8 7 5 7 6 7 6 5 4 7 5 3 2 1 3
6 14 11 10 12 14 14 11 12 14 13 12 19 25 24 22 25 24 24 27 15 23 22 22 21 20 19 19 14 13 12 9 6 8 11 10 7 7 8 6 6 4 5 6 7 5 3 1 2
12 13 13 13 13 14 18 17 15 9 13 21 25 25 23 23 23 24 24 25 23 22 12 22 23 22 17 16 17 12 14 11 10 10 9 9 8 6 7 8 7 5 7 6 5 6 5 5 5
10 14 9 10 12 13 10 9 14 28 25 26 24 24 24 23 22 23 25 24 24 24 25 26 14 11 16 16 16 18 9 12 11 12 11 12 9 8 9 8 7 7 7 6 5 6 6 5 5
13 10 7 12 12 15 17 6 5 21 23 22 23 21 23 24 23 24 25 24 26 30 27 17 24 17 19 19 17 13 14 9 9 11 11 10 10 9 10 9 7 8 7 6 6 4 5 5 5
7 8 10 8 12 13 13 14 16 20 21 21 22 22 20 20 20 21 21 22 23 22 28 27 17 19 29 16 8 6 12 13 13 12 10 8 8 10 8 9 9 7 7 7 6 5 6 6 5
5 8 7 5 11 15 13 10 10 18 21 22 23 22 21 20 19 20 18 21 21 16 19 20 19 19 17 18 9 3 10 12 12 9 9 14 10 14 12 10 9 8 7 6 6 6 6 6 3
7 10 7 5 5 9 11 2 17 19 24 25 26 27 27 26 24 20 21 19 21 21 15 17 22 25 26 19 16 9 10 5 5 5 10 9 13 14 12 11 11 9 7 6 6 7 6 6 5
14 11 11 5 7 10 8 12 19 25 27 25 25 26 29 27 32 21 21 23 21 24 22 13 9 14 18 21 15 11 4 3 6 9 9 12 13 13 12 12 11 10 8 6 6 8 7 7 5
Wind_Direction
259 235 232 247 97 67 297 284 218 79 74 78 81 49 78 62 61 138 145 106 116 119 126 128 130 132 131 127 126 127 124 121 122 121 122 112 109 107 108 108 106 103 98 90 84 79 71 63 55
294 289 227 271 114 24 245 318 340 85 57 81 72 102 81 60 94 145 131 117 115 127 132 134 137 137 133 132 131 129 127 127 130 128 127 120 118 117 115 109 106 104 99 93 85 75 65 52 36
257 240 270 228 119 151 233 60 304 308 119 124 101 59 52 106 115 138 118 117 123 137 131 132 139 138 135 134 135 134 134 135 138 135 130 126 124 121 119 116 116 113 108 98 84 66 48 34 9
285 287 224 252 181 201 131 64 316 298 138 95 125 95 76 97 125 121 127 125 143 130 126 137 139 140 141 140 141 140 141 142 140 139 135 134 132 127 124 122 124 122 114 104 92 75 29 3 342
276 263 277 268 265 103 150 145 198 16 296 103 95 88 96 101 104 147 127 142 140 123 129 141 142 145 145 145 146 148 150 147 147 146 146 143 141 138 136 137 141 134 127 136 130 321 327 322 313
285 272 270 267 277 137 170 141 123 143 268 129 111 102 103 112 138 145 139 157 125 125 141 142 147 148 148 150 152 155 152 153 152 152 155 150 152 152 159 162 169 175 170 200 249 278 286 286 284
268 277 275 285 313 317 47 149 164 162 12 100 105 113 126 139 142 147 153 148 122 134 132 144 150 152 153 154 157 160 157 160 159 159 161 164 166 174 175 191 195 201 211 233 259 271 278 276 266
267 277 285 283 284 123 338 346 79 80 34 305 50 133 150 140 150 155 162 146 131 143 146 151 150 156 160 161 164 166 166 166 164 173 170 178 183 194 199 204 216 215 221 236 250 257 260 258 260
273 270 267 268 296 139 139 224 223 137 155 236 69 117 134 146 155 163 159 154 147 149 155 158 161 163 169 159 167 169 171 173 178 183 186 189 206 195 201 207 212 207 222 236 245 248 246 251 258
255 250 256 270 305 359 26 353 330 108 196 122 107 110 132 151 163 167 166 163 162 155 161 161 166 166 169 158 151 175 177 182 192 190 182 216 221 188 213 194 180 198 212 229 237 247 254 267 258
245 247 259 267 319 315 343 315 62 89 279 100 144 140 149 159 171 175 172 172 169 172 161 163 165 170 169 151 161 180 177 187 197 195 173 211 245 179 192 154 198 203 216 230 223 238 237 248 250
244 251 256 273 269 318 292 290 115 115 242 63 13 281 156 165 174 182 180 176 174 173 165 160 152 173 181 141 169 187 181 187 187 194 187 214 206 239 233 231 202 200 194 216 225 214 201 222 259
242 250 257 262 276 236 276 286 288 191 160 108 101 268 168 167 178 187 180 171 173 166 164 165 144 158 210 149 172 192 189 180 186 171 175 207 222 229 202 240 312 327 326 290 309 268 353 353 293
250 241 254 265 275 245 252 266 251 256 157 145 175 210 169 177 179 185 175 161 166 166 158 172 153 154 198 179 170 194 177 168 170 162 168 197 220 233 246 238 256 261 271 289 301 358 337 301 4
270 272 275 232 254 264 252 254 264 263 256 225 146 191 162 183 182 185 173 162 169 165 159 164 158 158 191 187 213 177 170 206 179 180 161 168 191 266 224 280 271 260 246 259 291 272 9 9 344
274 257 262 253 246 257 266 259 245 244 262 213 203 208 174 172 189 182 180 167 166 174 159 167 174 165 184 179 194 195 206 186 175 192 161 164 177 222 175 244 262 249 315 357 337 315 350 355 337
232 246 236 246 245 216 223 246 258 274 244 245 204 216 199 179 185 181 180 170 169 176 163 172 181 169 176 181 182 213 210 181 209 181 170 169 184 192 206 231 246 14 341 342 341 351 78 18 344
241 218 228 244 268 214 219 228 240 241 273 267 203 240 240 206 182 183 184 173 165 177 178 179 182 173 166 186 186 198 217 186 216 190 187 163 178 205 179 223 266 329 316 19 351 1 3 325 271
281 321 306 322 355 301 313 294 283 279 270 273 230 203 231 269 257 183 185 179 169 172 170 187 193 187 166 180 191 193 203 186 202 199 188 163 175 198 191 212 174 204 217 90 32 357 328 281 72
315 288 276 283 284 285 283 279 269 277 281 271 274 243 212 237 245 243 190 188 176 174 176 175 191 195 185 186 189 202 190 191 190 201 182 178 175 212 179 191 170 179 130 160 96 37 325 300 97
257 266 280 286 298 304 274 268 256 251 257 257 269 281 284 262 266 266 213 190 179 179 181 178 183 190 199 191 182 198 191 197 189 194 165 168 195 163 161 174 168 153 145 135 124 60 97 341 26
274 264 286 295 299 270 265 269 258 255 225 231 238 245 260 262 271 280 267 212 190 185 185 187 184 186 187 192 191 195 200 197 192 184 168 150 160 158 173 175 152 150 152 132 136 89 3 316 351
297 331 323 296 288 291 280 270 271 268 258 264 35 32 37 33 21 7 9 7 203 192 189 193 187 185 189 191 208 191 199 200 178 182 162 162 155 182 182 162 138 142 114 97 112 116 42 31 24
307 291 284 279 265 258 255 250 263 287 34 60 48 36 28 28 22 17 6 6 3 16 249 189 188 184 184 187 204 223 199 202 181 182 158 159 158 176 161 149 146 143 118 119 116 120 90 69 49
304 245 262 258 233 235 260 267 71 62 54 47 35 31 25 20 20 17 12 357 353 5 355 359 210 166 174 197 192 213 229 203 190 186 172 163 159 174 164 147 139 135 125 127 132 103 101 64 82
310 330 299 308 299 318 336 327 54 80 64 46 37 28 24 13 12 12 6 1 5 357 352 35 29 295 211 189 197 184 221 203 216 182 175 165 171 169 150 140 145 132 128 133 116 125 116 122 93
353 315 344 296 283 278 287 290 62 56 46 33 27 22 17 12 4 6 360 351 355 2 349 5 45 306 324 190 174 166 197 224 209 172 176 157 146 140 150 147 134 134 132 134 156 112 105 118 149
32 325 313 279 272 267 267 289 74 47 35 23 10 7 360 357 360 354 354 347 343 4 352 353 351 322 328 340 328 233 209 216 220 170 158 134 139 146 153 144 137 138 141 149 136 132 132 131 125
350 42 360 323 300 303 302 63 92 34 31 15 6 1 354 354 351 348 347 344 341 343 1 355 348 344 338 336 317 298 247 217 159 142 129 159 144 150 156 149 148 151 150 159 139 145 145 132 128
64 50 30 359 339 327 289 275 333 38 23 11 1 353 343 354 342 349 349 347 345 335 332 348 349 339 330 320 311 278 259 163 138 149 181 152 149 149 157 153 160 155 140 132 138 151 149 151 153